Regional Weather Roundup
Issued by NWS

Home | Current Version | Previous Version | Graphics & Text | Print | Product List | Glossary Off
Versions: 1 2 3 4 5 6 7 8 9 10 11 12 13 14 15 16 17 18 19 20 21 22 23 24 25 26 27 28 29 30 31 32 33 34 35 36 37 38 39 40 41 42 43 44 45 46 47 48 49 50

000
ASUS43 KTOP 260308
RWRKS

WEATHER ROUNDUP FOR KANSAS
NATIONAL WEATHER SERVICE GOODLAND KS
900 PM CST THU DEC 25 2014

NOTE:  "FAIR" INDICATES FEW OR NO CLOUDS BELOW 12,000 FEET WITH NO
SIGNIFICANT WEATHER AND/OR OBSTRUCTIONS TO VISIBILITY.

KSZ001>006-013>018-027>032-041>047-260400-
NORTHWEST KANSAS

CITY           SKY/WX    TMP DP  RH WIND       PRES   REMARKS
GOODLAND       CLOUDY    30  26  85 N15       29.73R WCI  19
HAYS           PTCLDY    37  21  52 N12       29.63R WCI  30
HILL CITY      CLEAR     33  25  72 N21G30    29.68R WCI  21
RUSSELL        PTCLDY    39  27  62 S10       29.61R WCI  32
$$

KSZ061>065-074>080-084>089-260400-
SOUTHWEST KANSAS

CITY           SKY/WX    TMP DP  RH WIND       PRES   REMARKS
DODGE CITY     PTCLDY    46  21  37 S15       29.62R
ELKHART          N/A     46  15  28 SW10        N/A
GARDEN CITY    PTCLDY    32  24  72 N13       29.65R WCI  22
GREAT BEND     MOCLDY    45  27  49 S18       29.61R
LIBERAL        PTCLDY    41  18  38 SW12      29.65S
PRATT          CLOUDY    46  27  46 S20       29.66F
$$

KSZ066>073-081>083-090>101-260400-
SOUTHEAST KANSAS

CITY           SKY/WX    TMP DP  RH WIND       PRES   REMARKS
CHANUTE        MOCLDY    49  31  49 S20       29.80R
COFFEYVILLE    CLOUDY    51  30  44 S16G29    29.83R
HUTCHINSON     CLOUDY    50  28  42 S18G26    29.66F
MEDICINE LODGE   N/A     49  28  44 S13       29.69R
NEWTON         CLOUDY    48  27  43 S25G41    29.70R
PARSONS        CLOUDY    51  31  46 S16G23    29.83R
WICHITA INTL   MOCLDY    49  28  44 S12       29.74R
WICHITA JABRA  MOCLDY    50  27  40 S21G26    29.73R
WICHITA MCCONL MOCLDY    49  28  44 S12       29.75R
WINFIELD       MOCLDY    51  29  42 S23       29.77R
$$

KSZ007>012-019>026-033>040-048>060-102>105-260400-
NORTHEAST KANSAS

CITY           SKY/WX    TMP DP  RH WIND       PRES   REMARKS
CONCORDIA      PTCLDY    38  30  73 SE6       29.63S
EMPORIA        CLOUDY    48  28  46 S17G24    29.72S
LAWRENCE       MOCLDY    49  30  48 S16G25    29.75S
MANHATTAN      PTCLDY    50  29  44 SW13      29.69R
MARYSVILLE     MOCLDY    45  30  57 S7        29.68R
OLATHE IND     CLOUDY    49  31  49 S16       29.78R
OLATHE EXE     CLOUDY    50  30  46 S17G29    29.78R
SALINA         CLOUDY    49  31  49 S15G26    29.65R
TOPEKA BILLARD PTCLDY    51  30  44 S7        29.73R
TOPEKA FORBES  PTCLDY    49  31  49 S13       29.72S
$$


USA.gov is the U.S. government's official web portal to all federal, state and local government web resources and services.